Location: Marstown
(39.5056°N, 77.0820°W)
Time: 18:01:46
(UTC-04:00)

ISS - Visible Passes

Search period start: 24 June 2021 00:00
Search period end: 04 July 2021 00:00
Orbit: 419 x 422 km, 51.6° (Epoch: 24 June)

Date Brightness Start Highest point End Pass type
(mag) Time Alt. Az. Time Alt. Az. Time Alt. Az.
25 Jun -1.3 04:24:16 10° SSE 04:26:13 15° SE 04:28:10 10° E visible
27 Jun -3.1 04:27:43 19° SSW 04:29:49 46° SE 04:33:04 10° ENE visible
28 Jun -2.4 03:43:30 26° SSE 03:43:55 27° SE 03:46:51 10° ENE visible
29 Jun -1.2 02:59:32 15° ESE 02:59:32 15° ESE 03:00:39 10° E visible
29 Jun -3.2 04:32:37 17° WSW 04:35:03 52° NW 04:38:23 10° NE visible
30 Jun -3.8 03:48:56 50° WSW 03:49:43 85° NW 03:53:08 10° NE visible
01 Jul -2.9 03:05:31 44° E 03:05:31 44° E 03:08:08 10° ENE visible
01 Jul -1.7 04:39:12 10° WNW 04:41:58 22° NNW 04:44:43 10° NNE visible
02 Jul -1.2 02:22:22 17° ENE 02:22:22 17° ENE 02:23:20 10° ENE visible
02 Jul -2.1 03:55:30 19° WNW 03:57:12 30° NNW 04:00:16 10° NE visible
03 Jul -2.8 03:12:39 42° NW 03:12:49 42° NNW 03:16:07 10° NE visible
03 Jul -0.9 04:48:46 10° NW 04:50:33 13° NNW 04:52:20 10° NNE visible
